Regional Weather Roundup
Issued by NWS Newport/Morehead, NC

Current Version | Previous Version | Text Only | Print | Product List | Glossary On
Versions: 1 2 3 4 5 6 7 8 9 10 11 12 13 14 15 16 17 18 19 20 21 22 23 24 25 26 27 28 29 30 31 32 33 34 35 36 37 38 39 40 41 42 43 44 45 46 47 48 49 50
000 ASUS42 KMHX 260024 RWRMHX WEATHER ROUNDUP FOR EASTERN NORTH CAROLINA NATIONAL WEATHER SERVICE NEWPORT/MOREHEAD CITY NC 800 PM EDT MON MAY 25 2015 NOTE: "FAIR" INDICATES FEW OR NO CLOUDS BELOW 12,000 FEET WITH NO SIGNIFICANT WEATHER AND/OR OBSTRUCTIONS TO VISIBILITY NCZ015>017-031-032-045>047-102-103-260100- NORTH COAST CITY SKY/WX TMP DP RH WIND PRES REMARKS EDENTON CLEAR 74 62 66 S12 30.28F ELIZABETH CITY CLEAR 73 58 59 S9 30.29S KITTY HAWK CLEAR 73 60 63 S6 30.30F MANTEO CLEAR 73 62 68 S16 30.31F $$ NCZ045>047-081-094-103-104-260100- CENTRAL COAST CITY SKY/WX TMP DP RH WIND PRES REMARKS FRISCO CLEAR 73 61 65 S9 30.32S SWANQUARTER N/A 73 N/A N/A S9G15 30.27S $$ NCZ095-097-098-100-101-260100- SOUTHERN COAST CITY SKY/WX TMP DP RH WIND PRES REMARKS BEAUFORT CLEAR 73 62 68 S5 30.31S CEDAR ISLAND N/A 73 N/A N/A S3G9 30.36S JACKSONVILLE CLEAR 73 60 63 S5 30.30S PINEY ISLAND CLEAR N/A N/A N/A S6 30.31S WILMINGTON PTCLDY 75 62 64 SE7 30.29S $$ NCZ011>013-027>030-043-044-078>080-089-090>093-098-260100- COASTAL PLAIN CITY SKY/WX TMP DP RH WIND PRES REMARKS AHOSKIE CLEAR 74 59 59 SE7 30.26S CLINTON CLEAR 75 63 65 SE3 30.28R ELIZABETHTOWN CLEAR 76 61 59 S7 30.27S GOLDSBORO NOT AVBL GREENVILLE CLEAR 77 59 53 S14 30.28S HAVELOCK PTCLDY 72 61 68 S5 30.32R KENANSVILLE CLEAR 73 59 61 CALM 30.29S KINSTON CLEAR 75 59 57 S9 30.29S NEW BERN CLEAR 74 60 61 S7 30.32R RICHLANDS CLEAR 72 57 60 CALM 30.30S ROCKY MOUNT CLEAR 79 57 46 S5 30.25S WASHINGTON CLEAR 74 59 59 S8 30.29S WHITEVILLE CLEAR 74 63 66 SE5 30.27F $$ AMZ130-135-150-152-154-156-158-170-250-252-270-ANZ085-086-088-633-658-670-260100- MARINE OBSERVATIONS STATION/POSITION TIME TEMP WIND PRES WAVE SWELL AIR SEA DIR/SP/G HT/PER HT/PER (UTC) (F) (DEG/KT/KT) (MB) (FT/S) (FT/S) CHESAPEAKE LIGHT 0000 68 160/ 23/ 24 1025.6 64 E VA BEACH 2350 67 65 150/ 8/ 8 1026.5 1/ 7 2/ 7 DUCK 0000 74 65 180/ 16/ 18 1024.9 2 E DUCK 2311 66 N/A 1/ 9 OREGON INLET 0000 73 77 180/ 12/ 14 1026.5 13E OREGON INLT 2300 70 N/A 1/ 7 HATTERAS CG 0000 74 76 150/ 8/ 10 1026.1 DIAMOND BUOY 2350 75 77 160/ 14/ 17 1026.8 2/ 7 2/ 7 CAPE LOOKOUT 0000 74 160/ 8/ 9 1026.1 BEAUFORT LAB 0000 74 76 170/ 7/ 10 1025.5 27 SE WRIGHTSVLE 0000 72 77 170/ 8/ 10 N/A 5 SE WRIGHTSVLE 2308 75 77 180/ 10/ 12 1025.9 225 S CAPE HAT 2350 74 75 120/ 12/ 14 1026.2 3/ 6 2/ 6 41 SE CHARLESTON 2350 76 76 90/ 12/ 14 1024.3 4/ 7 3/ 7 $$

USA.gov is the U.S. government's official web portal to all federal, state and local government web resources and services.